User: anonymous   Login
Location: Starry Hill Observatory
(46.8582°N, 122.3590°W)
Time: 15:33:53
(UTC-07:00)
Language:

Cosmos 1300 Rocket - Orbit

View from above orbital plane
View from above orbital plane
View from above satellite
View from above satellite

Ground track
Ground track

The orbit data is extracted from the following two-line orbital elements,

1 12786U 81082B   15091.40848760  .00000730  00000-0  83822-4 0  9993
2 12786 082.4920 008.9162 0018822 044.5409 315.7315 14.84411744814965
Epoch (UTC): 01 April 2015 09:48:13
Eccentricity: 0.0018822
inclination: 82.4920°
perigee height: 602 km
apogee height: 628 km
right ascension of ascending node: 8.9162°
argument of perigee: 44.5409°
revolutions per day: 14.84411744
mean anomaly at epoch: 315.7315°
orbit number at epoch: 81496

The dashed part of the orbit path shows where the satellite is in the earth's shadow,  

DLR